Zurück zum Katalog

DMSP 5D-2 F13 DEB

AktivSSO
NORAD 40527·DEBRIS·🇺🇸 United States

Gestartet Mar 24, 1995 von Vandenberg Space Force Base

Loading…

Nächste Überflüge (nächste 24 Stunden)

TLE

AktuellSource: Space-Track

Epoche: Sep 14, 2026, 11:09 UTC

1 40527U 95015DP  26257.46507929  .00002376  00000-0  98794-3 0  9990
2 40527  98.9546 256.1217 0040109 125.1277 235.3672 14.26934086591369

Verfolge DMSP 5D-2 F13 DEB in Echtzeit mit AllMySat

Download on the App Store